Location: Newark
(48.8833°N, 0.9236°W)
Time: 07:37:50
(UTC+00:00)

Tiros 1 despin weight - Pass Details

Date: 17 November 2019
Orbit: 594 x 642 km, 48.2° (Epoch: 12 December)

Event Time Altitude Azimuth Distance (km) Brightness Sun altitude
Rises 18:44:15 0° 282° (WNW) 2,854 ? -23.3°
Reaches altitude 10° 18:46:36 10° 277° (W) 1,956 ? -23.7°
Maximum altitude 18:50:53 46° 204° (SSW) 826 ? -24.4°
Enters shadow 18:51:26 44° 182° (S) 856 ? -24.5°
Drops below altitude 10° 18:55:14 10° 131° (SE) 1,979 - -25.1°
Sets 18:57:37 0° 126° (SE) 2,891 - -25.5°
